Weather History for Cooperstown, ND

Change the Weather History Date:

Tuesday, August 27, 2013

  Actual Average (KJMS) Record (KJMS)
Temperature  
Mean Temperature 74 °F 66 °F  
Max Temperature 91 °F 79 °F 103 °F (1973)
Min Temperature 57 °F 53 °F 32 °F (1982)
Degree Days  
Heating Degree Days 0 3  
Month to date heating degree days 34  
Since 1 June heating degree days 153  
Since 1 July heating degree days 56  
Cooling Degree Days 9 3  
Month to date cooling degree days 133  
Year to date cooling degree days 405  
Since 1 June cooling degree days 385  
Growing Degree Days 24 (Base 50)    
Moisture  
Dew Point 64 °F    
Average Humidity 78    
Maximum Humidity 100    
Minimum Humidity 38    
Precipitation  
Precipitation 0.00 in 0.07 in 1.19 in (1954)
Month to date precipitation 1.80  
Year to date precipitation 13.89  
Sea Level Pressure  
Sea Level Pressure 29.91 in    
Wind  
Wind Speed 3 mph (ENE)    
Max Wind Speed 8 mph    
Max Gust Speed -    
Visibility 9 miles    
Events Rain    
T = Trace of Precipitation, MM = Missing Value Source: NWS Daily Summary

Daily Weather History Graph

Daily Weather History Graph

Search for Another Location

Airport:

Trip Planner

Search our weather history database for the weather conditions in past years. The results will help you decide how hot, cold, wet, or windy it might be!

Date:

Astronomy

Aug. 27, 2013 Rise Set
Actual Time 6:44 AM CDT 8:21 PM CDT
Civil Twilight 6:12 AM CDT 8:53 PM CDT
Nautical Twilight 5:33 AM CDT 9:33 PM CDT
Astronomical Twilight 4:50 AM CDT 10:15 PM CDT
Moon 11:44 PM CDT (8/27) 2:15 PM CDT (8/27)
Length of Visible Light 14h 41m
Length of Day
13h 36m
Waning Gibbous, 57% of the Moon is Illuminated
Aug 27
Waning Gibbous
Aug 28
Last Quarter
Sep 5
New
Sep 12
First Quarter
Sep 19
Full

Hourly Weather History & Observations

Time (CDT) Temp. Heat Index Dew Point Humidity Pressure Visibility Wind Dir Wind Speed Gust Speed Precip Events Conditions
12:15 AM 62.6 °F - 62.6 °F 100% 29.87 in 10.0 mi East 3.5 mph - N/A   Clear
12:35 AM 60.8 °F - 60.8 °F 100% 29.88 in 9.0 mi NNW 3.5 mph - N/A   Clear
12:55 AM 62.6 °F - 62.6 °F 100% 29.88 in 8.0 mi NNE 4.6 mph - N/A   Clear
1:15 AM 62.6 °F - 62.6 °F 100% 29.87 in 8.0 mi Calm Calm - N/A   Clear
1:35 AM 62.6 °F - 62.6 °F 100% 29.87 in 10.0 mi NNE 4.6 mph - N/A Rain Light Rain
1:55 AM 59.0 °F - 59.0 °F 100% 29.87 in 6.0 mi Calm Calm - N/A   Clear
2:15 AM 60.8 °F - 60.8 °F 100% 29.87 in 7.0 mi Calm Calm - N/A   Clear
2:35 AM 62.6 °F - 62.6 °F 100% 29.87 in 9.0 mi North 5.8 mph - N/A   Clear
2:55 AM 62.6 °F - 62.6 °F 100% 29.87 in 10.0 mi North 3.5 mph - N/A   Clear
3:15 AM 59.0 °F - 59.0 °F 100% 29.86 in 8.0 mi NE 3.5 mph - N/A   Clear
3:35 AM 62.6 °F - 62.6 °F 100% 29.86 in 9.0 mi NNW 3.5 mph - N/A   Clear
3:55 AM 59.0 °F - 59.0 °F 100% 29.87 in 8.0 mi Calm Calm - N/A   Clear
4:15 AM 59.0 °F - 59.0 °F 100% 29.87 in 9.0 mi North 3.5 mph - N/A   Clear
4:35 AM 59.0 °F - 59.0 °F 100% 29.87 in 8.0 mi Calm Calm - N/A   Clear
4:55 AM 57.2 °F - 57.2 °F 100% 29.87 in 8.0 mi Calm Calm - N/A   Clear
5:15 AM 59.0 °F - 59.0 °F 100% 29.87 in 7.0 mi NNW 3.5 mph - N/A   Clear
5:35 AM 59.0 °F - 59.0 °F 100% 29.88 in 7.0 mi North 3.5 mph - N/A   Clear
5:55 AM 59.0 °F - 59.0 °F 100% 29.88 in 8.0 mi North 3.5 mph - N/A Rain Light Rain
6:15 AM 60.8 °F - 60.8 °F 100% 29.88 in 6.0 mi Calm Calm - N/A Rain Light Rain
6:35 AM 57.2 °F - 57.2 °F 100% 29.89 in 6.0 mi Calm Calm - N/A   Clear
6:55 AM 57.2 °F - 57.2 °F 100% 29.89 in 8.0 mi Calm Calm - N/A   Clear
7:15 AM 57.2 °F - 57.2 °F 100% 29.90 in 8.0 mi Calm Calm - N/A   Clear
7:35 AM 59.0 °F - 59.0 °F 100% 29.90 in 5.0 mi Calm Calm - N/A   Clear
7:55 AM 62.6 °F - 62.6 °F 100% 29.91 in 8.0 mi North 3.5 mph - N/A   Clear
8:15 AM 64.4 °F - 64.4 °F 100% 29.91 in 9.0 mi NNE 3.5 mph - N/A   Clear
8:35 AM 66.2 °F - 66.2 °F 100% 29.91 in 10.0 mi North 5.8 mph - N/A   Clear
8:55 AM 66.2 °F - 66.2 °F 100% 29.91 in 10.0 mi North 5.8 mph - N/A   Clear
9:15 AM 68.0 °F - 68.0 °F 100% 29.91 in 10.0 mi North 3.5 mph - N/A   Clear
9:35 AM 71.6 °F - 69.8 °F 94% 29.92 in 10.0 mi Calm Calm - N/A   Clear
9:55 AM - - - N/A% - 10.0 mi North - - N/A   Unknown
10:15 AM 75.2 °F - 69.8 °F 83% 29.92 in 10.0 mi North 3.5 mph - N/A   Unknown
10:35 AM 77.0 °F - 69.8 °F 78% 29.92 in 10.0 mi NNW 3.5 mph - N/A   Clear
10:55 AM 78.8 °F - 66.2 °F 65% 29.93 in 10.0 mi NE 3.5 mph - N/A   Clear
11:15 AM 80.6 °F 83.2 °F 68.0 °F 65% 29.93 in 10.0 mi NNW 3.5 mph - N/A   Clear
11:35 AM 82.4 °F 83.4 °F 62.6 °F 51% 29.93 in 10.0 mi Calm Calm - N/A   Clear
11:55 AM 82.4 °F 83.9 °F 64.4 °F 54% 29.93 in 10.0 mi Calm Calm - N/A   Clear
12:15 PM 86.0 °F 86.6 °F 62.6 °F 45% 29.93 in 10.0 mi ENE 3.5 mph - N/A   Clear
12:35 PM 84.2 °F 84.4 °F 60.8 °F 45% 29.93 in 10.0 mi Calm Calm - N/A   Clear
12:55 PM 86.0 °F 86.6 °F 62.6 °F 45% 29.94 in 10.0 mi North 3.5 mph - N/A   Clear
1:15 PM 87.8 °F 89.4 °F 64.4 °F 46% 29.92 in 10.0 mi ENE 3.5 mph - N/A   Clear
1:35 PM 86.0 °F 86.6 °F 62.6 °F 45% 29.92 in 10.0 mi Calm Calm - N/A   Clear
1:55 PM 87.8 °F 88.5 °F 62.6 °F 43% 29.92 in 10.0 mi SW 4.6 mph - N/A   Clear
2:15 PM 87.8 °F 88.5 °F 62.6 °F 43% 29.91 in 10.0 mi Calm Calm - N/A   Unknown
2:35 PM 89.6 °F 90.1 °F 62.6 °F 40% 29.91 in 10.0 mi Calm Calm - N/A   Clear
2:55 PM 89.6 °F 90.1 °F 62.6 °F 40% 29.91 in 10.0 mi South 3.5 mph - N/A   Clear
3:15 PM 89.6 °F 90.1 °F 62.6 °F 40% 29.91 in 10.0 mi Calm Calm - N/A   Unknown
3:35 PM 89.6 °F 90.1 °F 62.6 °F 40% 29.90 in 10.0 mi Calm Calm - N/A   Clear
3:55 PM 91.4 °F 92.1 °F 62.6 °F 38% 29.90 in 10.0 mi WNW 3.5 mph - N/A   Unknown
4:15 PM - - - N/A% 29.89 in - Calm Calm - N/A   Unknown
4:35 PM - - - N/A% - - North - - N/A   Unknown
4:55 PM - - - N/A% - - North - - N/A   Unknown
5:35 PM 89.6 °F 91.1 °F 64.4 °F 43% 29.91 in 10.0 mi East 5.8 mph - N/A   Unknown
5:55 PM 89.6 °F 91.1 °F 64.4 °F 43% 29.91 in 10.0 mi ESE 5.8 mph - N/A   Unknown
6:15 PM 87.8 °F 89.4 °F 64.4 °F 46% 29.91 in 10.0 mi East 6.9 mph - N/A   Unknown
6:35 PM 84.2 °F 85.6 °F 64.4 °F 51% 29.91 in - East 6.9 mph - N/A   Unknown
6:55 PM 84.2 °F 86.6 °F 66.2 °F 55% 29.91 in 10.0 mi ESE 4.6 mph - N/A   Clear
7:15 PM 82.4 °F 85.4 °F 68.0 °F 62% 29.91 in 10.0 mi SE 6.9 mph - N/A   Unknown
7:35 PM 80.6 °F 83.2 °F 68.0 °F 65% 29.90 in 10.0 mi SE 5.8 mph - N/A   Clear
7:55 PM 78.8 °F - 68.0 °F 69% 29.91 in 10.0 mi SE 5.8 mph - N/A   Clear
8:15 PM 77.0 °F - 69.8 °F 78% 29.91 in 8.0 mi SE 5.8 mph - N/A   Unknown
8:35 PM 75.2 °F - 69.8 °F 83% 29.91 in 10.0 mi SSE 5.8 mph - N/A   Clear
8:55 PM 75.2 °F - 69.8 °F 83% 29.92 in 10.0 mi SSE 6.9 mph - N/A   Clear
9:15 PM 75.2 °F - 69.8 °F 83% 29.94 in 10.0 mi SE 4.6 mph - N/A   Unknown
9:35 PM 75.2 °F - 69.8 °F 83% 29.95 in 9.0 mi SSE 3.5 mph - N/A   Clear
9:55 PM 75.2 °F - 69.8 °F 83% 29.96 in 10.0 mi South 4.6 mph - N/A   Clear
10:15 PM 73.4 °F - 69.8 °F 88% 29.95 in 10.0 mi SSE 6.9 mph - N/A   Clear
10:35 PM 73.4 °F - 69.8 °F 88% 29.94 in 10.0 mi SSE 8.1 mph - N/A   Clear
10:55 PM 73.4 °F - 69.8 °F 88% 29.94 in 10.0 mi South 6.9 mph - N/A   Clear
11:15 PM 73.4 °F - 68.0 °F 83% 29.94 in 10.0 mi South 3.5 mph - N/A   Clear
11:35 PM 73.4 °F - 69.8 °F 88% 29.94 in 10.0 mi Calm Calm - N/A   Clear
11:55 PM 73.4 °F - 69.8 °F 88% 29.95 in 10.0 mi Calm Calm - N/A   Clear